KAXV

Details ICAO KAXV
Name NEIL ARMSTRONG
Region United States
Timezone America/New_York (UTC-4.0)
Plans Departing 0
Arriving 2
Stats Elevation 912 ft / 278 m (AMSL)
Location 40.492829° -84.300977°
Runways 2
Magnetic Variation 6.277° W
Sunrise 2018-05-25 10:14:10 UTC / 2018-05-25 06:14:10 Local
Sunset 2018-05-26 00:57:02 UTC / 2018-05-25 20:57:02 Local
Advertisement - Login to hide

Runways

ID Width Length Bearing (true) Bearing (mag) Surface Threshold Offset Overrun Length
08 100 ft / 30 m 4,991 ft / 1,521 m 76.53° 82.81° Asphalt 700 ft / 213 m 300 ft / 91 m
18 80 ft / 24 m 2,636 ft / 803 m 180.00° 186.28° Grass 290 ft / 88 m 0 ft / 0 m
26 100 ft / 30 m 4,991 ft / 1,521 m 256.54° 262.82° Asphalt 236 ft / 72 m 0 ft / 0 m
36 80 ft / 24 m 2,636 ft / 803 m 0.00° 6.28° Grass 0 ft / 0 m 0 ft / 0 m

Map

Weather


0- 5 10 15 20 25 30 35+ Temperature / ° C

Clouds and Precipitation
Forecast for 2018-05-25 18:00 UTC. Updated 22 minutes ago

Ground ~20,000 ft ~40,000 ft Winds

METAR

KAXV 251735Z AUTO 20009KT 10SM CLR 27/11 A2998 RMK AO2

TAF

Not found

Frequencies

Recorded 128.32 MHz AWOS 3
Approach 134.45 MHz DAYTON APP/DEP
Unicom 122.80 MHz CTAF/UNICOM
Warning: Do not use this data for real-world aviation or navigation. No guarantee of current accuracy is given.